Location: Wiesbaden
(50.0830°N, 8.2500°E)
Time: 21:08:18
(UTC+02:00)

ISS - Pass Details

Date: 23 April 2026
Orbit: 414 x 424 km, 51.6° (Epoch: 12 May)

Event Time Altitude Azimuth Distance (km) Brightness Sun altitude
Exits shadow 04:44:09 21° 191° (S) 1,006 -2.3 -13.8°
Maximum altitude 04:45:39 30° 147° (SSE) 779 -2.5 -13.7°
Drops below altitude 10° 04:48:39 10° 84° (E) 1,506 0.0 -13.3°
Sets 04:50:54 0° 73° (ENE) 2,375 1.5 -13.0°
